Tiempo cada hora Ondjiwa

Hoy, 28 Octubre, Miércoles

Tiempo Temperatura Precipitaciones Viento Presión Humedad
00:00 +27°C° 0 mm 3 mps 664 mmHg 25%
01:00 +26°C° 0 mm 4 mps 664 mmHg 30%
02:00 +25°C° 0 mm 4 mps 664 mmHg 30%
03:00 +24°C° 0 mm 3 mps 664 mmHg 31%
04:00 +22°C° 0 mm 3 mps 663 mmHg 32%
05:00 +22°C° 0 mm 3 mps 664 mmHg 30%
06:00 +24°C° 0 mm 2 mps 665 mmHg 28%
07:00 +26°C° 0 mm 2 mps 666 mmHg 26%
08:00 +29°C° 0 mm 2 mps 666 mmHg 22%
09:00 +32°C° 0 mm 2 mps 666 mmHg 17%
10:00 +37°C° 0 mm 2 mps 667 mmHg 13%
11:00 +38°C° 0 mm 3 mps 666 mmHg 13%
12:00 +40°C° 0 mm 3 mps 665 mmHg 12%
13:00 +42°C° 0 mm 3 mps 665 mmHg 12%
14:00 +42°C° 0 mm 3 mps 664 mmHg 12%
15:00 +41°C° 0 mm 2 mps 664 mmHg 11%
16:00 +41°C° 0 mm 1 mps 663 mmHg 11%
17:00 +38°C° 0 mm 2 mps 663 mmHg 15%
18:00 +36°C° 0 mm 3 mps 664 mmHg 20%
19:00 +33°C° 0 mm 3 mps 664 mmHg 24%
20:00 +32°C° 0.1 mm 4 mps 665 mmHg 25%
21:00 +30°C° 0.1 mm 5 mps 665 mmHg 25%
22:00 +28°C° 0.1 mm 6 mps 666 mmHg 26%
23:00 +27°C° 0.2 mm 5 mps 666 mmHg 32%

Mañana, 29 Octubre, Jueves

Tiempo Temperatura Precipitaciones Viento Presión Humedad
00:00 +26°C° 0.2 mm 5 mps 666 mmHg 38%
01:00 +23°C° 0.2 mm 5 mps 665 mmHg 44%
02:00 +22°C° 0 mm 4 mps 665 mmHg 46%
03:00 +21°C° 0 mm 3 mps 665 mmHg 48%
04:00 +20°C° 0 mm 2 mps 665 mmHg 50%
05:00 +20°C° 0 mm 2 mps 666 mmHg 44%
06:00 +21°C° 0 mm 3 mps 666 mmHg 38%
07:00 +22°C° 0 mm 3 mps 667 mmHg 32%
08:00 +26°C° 0 mm 3 mps 667 mmHg 27%
09:00 +29°C° 0 mm 2 mps 668 mmHg 21%
10:00 +33°C° 0 mm 1 mps 668 mmHg 16%
11:00 +36°C° 0 mm 2 mps 667 mmHg 15%
12:00 +38°C° 0 mm 2 mps 667 mmHg 14%
13:00 +40°C° 0 mm 2 mps 666 mmHg 14%
14:00 +40°C° 0 mm 2 mps 666 mmHg 14%
15:00 +40°C° 0 mm 2 mps 665 mmHg 14%
16:00 +40°C° 0 mm 2 mps 665 mmHg 14%
17:00 +38°C° 0 mm 2 mps 665 mmHg 17%
18:00 +34°C° 0 mm 1 mps 665 mmHg 19%
19:00 +32°C° 0 mm 1 mps 665 mmHg 21%
20:00 +31°C° 0 mm 2 mps 665 mmHg 23%
21:00 +31°C° 0 mm 3 mps 666 mmHg 25%
22:00 +30°C° 0 mm 5 mps 667 mmHg 27%
23:00 +29°C° 0 mm 4 mps 666 mmHg 28%

Pasado mañana, 30 Octubre, Viernes

Tiempo Temperatura Precipitaciones Viento Presión Humedad
00:00 +27°C° 0 mm 4 mps 666 mmHg 29%
01:00 +26°C° 0 mm 4 mps 666 mmHg 30%
02:00 +25°C° 0 mm 3 mps 666 mmHg 31%
03:00 +24°C° 0 mm 3 mps 666 mmHg 32%
04:00 +22°C° 0 mm 3 mps 666 mmHg 33%
05:00 +24°C° 0 mm 3 mps 666 mmHg 32%
06:00 +24°C° 0 mm 2 mps 667 mmHg 31%
07:00 +25°C° 0 mm 2 mps 667 mmHg 30%
08:00 +28°C° 0.1 mm 2 mps 668 mmHg 28%
09:00 +31°C° 0.1 mm 2 mps 668 mmHg 25%
10:00 +35°C° 0.1 mm 1 mps 669 mmHg 22%
11:00 +36°C° 0 mm 1 mps 668 mmHg 20%
12:00 +39°C° 0 mm 1 mps 668 mmHg 18%
13:00 +40°C° 0 mm 1 mps 667 mmHg 17%
14:00 +39°C° 0 mm 2 mps 666 mmHg 17%
15:00 +38°C° 0 mm 2 mps 666 mmHg 18%
16:00 +37°C° 0 mm 2 mps 665 mmHg 19%
17:00 +36°C° 0.1 mm 2 mps 665 mmHg 22%
18:00 +34°C° 0.1 mm 2 mps 666 mmHg 25%
19:00 +31°C° 0.1 mm 1 mps 666 mmHg 28%
20:00 +30°C° 0.2 mm 1 mps 666 mmHg 31%
21:00 +29°C° 0.2 mm 2 mps 666 mmHg 34%
22:00 +28°C° 0.2 mm 2 mps 667 mmHg 37%
23:00 +28°C° 0.2 mm 2 mps 667 mmHg 40%

31 Octubre, Sábado

Tiempo Temperatura Precipitaciones Viento Presión Humedad
00:00 +27°C° 0.2 mm 1 mps 667 mmHg 42%
01:00 +27°C° 0.2 mm 1 mps 666 mmHg 45%
02:00 +26°C° 0 mm 2 mps 666 mmHg 45%
03:00 +25°C° 0 mm 2 mps 666 mmHg 46%
04:00 +25°C° 0 mm 2 mps 666 mmHg 47%
05:00 +25°C° 0 mm 2 mps 667 mmHg 45%
06:00 +25°C° 0 mm 2 mps 667 mmHg 43%
07:00 +26°C° 0 mm 2 mps 668 mmHg 40%
08:00 +29°C° 0 mm 2 mps 668 mmHg 35%
09:00 +33°C° 0 mm 3 mps 668 mmHg 29%
10:00 +36°C° 0 mm 4 mps 668 mmHg 23%
11:00 +37°C° 0 mm 3 mps 668 mmHg 20%
12:00 +39°C° 0 mm 3 mps 667 mmHg 18%
13:00 +42°C° 0 mm 3 mps 667 mmHg 15%
14:00 +40°C° 0 mm 2 mps 666 mmHg 15%
15:00 +39°C° 0 mm 1 mps 666 mmHg 16%
16:00 +39°C° 0 mm 1 mps 665 mmHg 16%
17:00 +36°C° 0 mm 1 mps 665 mmHg 18%
18:00 +34°C° 0 mm 1 mps 665 mmHg 20%
19:00 +32°C° 0 mm 1 mps 665 mmHg 22%
20:00 +31°C° 0 mm 1 mps 665 mmHg 23%
21:00 +31°C° 0 mm 2 mps 665 mmHg 24%
22:00 +30°C° 0 mm 2 mps 666 mmHg 25%
23:00 +30°C° 0 mm 3 mps 666 mmHg 28%

1 Noviembre, Domingo

Tiempo Temperatura Precipitaciones Viento Presión Humedad
00:00 +29°C° 0 mm 3 mps 666 mmHg 31%
01:00 +28°C° 0 mm 3 mps 666 mmHg 34%
02:00 +27°C° 0 mm 3 mps 665 mmHg 35%
03:00 +27°C° 0 mm 3 mps 665 mmHg 37%
04:00 +26°C° 0 mm 3 mps 665 mmHg 38%
05:00 +27°C° 0 mm 3 mps 665 mmHg 35%
06:00 +27°C° 0 mm 3 mps 666 mmHg 32%
07:00 +28°C° 0 mm 3 mps 666 mmHg 29%
08:00 +31°C° 0 mm 3 mps 666 mmHg 25%
09:00 +36°C° 0 mm 2 mps 667 mmHg 21%
10:00 +39°C° 0 mm 1 mps 667 mmHg 17%
11:00 +40°C° 0 mm 1 mps 667 mmHg 16%
12:00 +40°C° 0 mm 2 mps 666 mmHg 14%
13:00 +41°C° 0 mm 2 mps 665 mmHg 13%
14:00 +41°C° 0 mm 2 mps 665 mmHg 13%
15:00 +40°C° 0 mm 2 mps 665 mmHg 13%
16:00 +40°C° 0 mm 2 mps 664 mmHg 13%
17:00 +37°C° 0 mm 1 mps 664 mmHg 15%
18:00 +35°C° 0 mm 1 mps 664 mmHg 17%
19:00 +33°C° 0 mm 1 mps 664 mmHg 19%
20:00 +34°C° 0 mm 3 mps 665 mmHg 21%
21:00 +33°C° 0 mm 5 mps 665 mmHg 22%
22:00 +32°C° 0 mm 7 mps 666 mmHg 24%
23:00 +30°C° 0 mm 6 mps 665 mmHg 27%

2 Noviembre, Lunes

Tiempo Temperatura Precipitaciones Viento Presión Humedad
00:00 +28°C° 0 mm 5 mps 665 mmHg 30%
01:00 +27°C° 0 mm 4 mps 665 mmHg 33%
02:00 +25°C° 0 mm 3 mps 664 mmHg 35%
03:00 +24°C° 0 mm 2 mps 664 mmHg 36%
04:00 +23°C° 0 mm 2 mps 664 mmHg 38%
05:00 +24°C° 0 mm 2 mps 665 mmHg 34%
06:00 +25°C° 0 mm 3 mps 665 mmHg 31%
07:00 +26°C° 0 mm 4 mps 666 mmHg 27%
08:00 +29°C° 0 mm 3 mps 667 mmHg 23%
09:00 +33°C° 0 mm 3 mps 667 mmHg 20%
10:00 +36°C° 0 mm 3 mps 667 mmHg 16%
11:00 +37°C° 0 mm 3 mps 667 mmHg 15%
12:00 +39°C° 0 mm 3 mps 666 mmHg 14%
13:00 +40°C° 0 mm 3 mps 666 mmHg 14%
14:00 +40°C° 0 mm 3 mps 665 mmHg 14%
15:00 +40°C° 0 mm 3 mps 665 mmHg 14%
16:00 +39°C° 0 mm 3 mps 664 mmHg 14%
17:00 +38°C° 0 mm 3 mps 664 mmHg 15%
18:00 +36°C° 0 mm 2 mps 664 mmHg 17%
19:00 +34°C° 0 mm 2 mps 664 mmHg 19%
20:00 +33°C° 0 mm 3 mps 665 mmHg 20%
21:00 +32°C° 0 mm 4 mps 666 mmHg 22%
22:00 +30°C° 0 mm 6 mps 666 mmHg 23%
23:00 +28°C° 0 mm 5 mps 666 mmHg 26%
Mostrar más

Necesitamos Su Consentimiento

Meteoprog y nuestros Proveedores de Servicios pueden almacenar y acceder a sus datos personales como cookies, identificadores de dispositivo u otras tecnologías similares de su dispositivo y procesar dichos datos para personalizar contenido y anuncios, además de ofrecer funciones de redes sociales y analizar el tráfico.

  • Almacenar y/o acceder a información en su dispositivo

    Se puede almacenar o acceder a cookies, identificadores de dispositivo u otra información de su dispositivo para los fines anteriormente indicados.

  • Anuncios y contenido personalizados, medición de anuncios y contenido, percepciones del público, y desarrollo de productos

    Los anuncios y el contenido pueden personalizarse en base a su perfil. Se pueden añadir más datos para personalizar mejor los anuncios y contenidos. Se puede medir el rendimiento de los anuncios y contenidos. Se puede obtener la percepción sobre el público que ha visto los anuncios y contenidos. Dichos datos pueden usarse para desarrollar o mejorar la experiencia del usuario, sistemas y software.

Al hacer clic en ‘Estoy De Acuerdo’ usted permitirá el uso de las cookies, identificadores de dispositivo, balizas web u otras tecnologías similares indicadas. Su configuración puede cambiarse desde el navegador de su dispositivo.

Para ciertos fines, los intereses legítimos pueden ser considerados por encima del consentimiento. Puede leer más sobre ello en nuestra Política de Privacidad y Cookies.